[[{"header":{"parameterUnit":"m.s-1","parameterCategory":1,"la1":30.2991,"la2":30.254,"lo1":-89.0895,"lo2":-89.0444,"dy":0.0017,"dx":0.0017,"nx":28,"ny":28,"refTime":"2025-09-07T03:00:00:Z","depth":0,"parameterNumber":2,"parameterNumberName":"U-component_of_WINDS"},"data":[0,0,0,0,0,0,0,0,0,0,0,0,0,0,0,0,0,0,0,0,0,0,0,0,0,0,0,0,0,0,0,0,0,0,0,0,0,0,0,0,0,0,0,0,0,0,0,0,0,0,0,0,0,0,0,0,0,0,-1.2909,-1.291,0,-1.2959,-1.2959,-1.296,-1.2912,-1.291,-1.2908,-1.2906,-1.2958,-1.2961,-1.2964,0,0,0,0,0,0,0,0,0,0,0,0,0,-1.2774,-1.2777,-1.2909,-1.291,-1.2911,-1.2959,-1.2959,-1.296,-1.2912,-1.291,-1.2908,-1.2905,-1.2957,-1.2961,-1.2965,0,0,0,0,0,0,0,0,0,0,0,0,0,-1.2829,-1.2778,-1.2909,-1.2893,-1.2891,-1.2958,-1.2959,-1.296,-1.2913,-1.291,-1.2907,-1.2904,-1.2956,-1.296,-1.2965,-1.3051,0,0,-1.2979,-1.2982,0,0,0,0,0,0,0,0,-1.2826,-1.2834,-1.2894,-1.2894,-1.2893,-1.2926,-1.293,-1.2991,-1.2913,-1.2905,-1.2906,-1.2903,-1.295,-1.2955,-1.297,-1.3054,-1.3056,-1.298,-1.2983,-1.2985,-1.2986,0,0,0,0,0,0,0,-1.2822,-1.2832,-1.2929,-1.2895,-1.2894,-1.2883,-1.2887,-1.2942,-1.2943,-1.2905,-1.2902,-1.2908,-1.2949,-1.2966,-1.2971,-1.3057,-1.298,-1.2984,-1.2987,-1.2989,-1.3213,-1.3216,0,0,0,0,0,0,-1.282,-1.2829,-1.2927,-1.293,-1.2852,-1.2887,-1.2893,-1.2918,-1.2942,-1.2943,-1.2911,-1.2906,-1.2959,-1.2966,-1.2973,-1.3076,-1.2985,-1.2989,-1.2992,-1.3209,-1.3213,-1.3217,0,0,0,0,0,0,-1.2817,-1.2829,-1.2925,-1.2879,-1.289,-1.2893,-1.2922,-1.2921,-1.2938,-1.2946,-1.2946,-1.2928,-1.2957,-1.2966,-1.3032,-1.3077,-1.2991,-1.2996,-1.3206,-1.3211,-1.3215,-1.3282,0,0,0,0,0,0,-1.2814,-1.2829,-1.2862,-1.288,-1.2893,-1.2984,-1.2925,-1.2924,-1.2946,-1.294,-1.2962,-1.2963,-1.2956,-1.3025,-1.3037,-1.3082,-1.2999,-1.3202,-1.3208,-1.3213,-1.3276,-1.3288,-1.3299,0,0,0,0,0,-1.2809,-1.2879,-1.2864,-1.2876,-1.2934,-1.2987,-1.2994,-1.2984,-1.295,-1.2983,-1.2988,-1.2963,-1.3069,-1.3032,-1.3045,-1.3092,-1.3199,-1.3206,-1.3213,-1.3271,-1.3286,-1.3299,0,0,0,0,0,0,-1.2867,-1.2881,-1.2864,-1.2942,-1.2963,-1.2978,-1.302,-1.3,-1.3032,-1.3025,-1.3011,-1.3016,-1.3086,-1.3095,-1.3053,-1.3176,-1.3129,-1.3139,-1.3168,-1.3183,-1.3194,-1.3191,-1.3003,0,0,0,0,0,-1.2888,-1.293,-1.294,-1.3008,-1.3019,-1.3018,-1.304,-1.303,-1.3052,-1.3061,-1.3071,-1.3093,-1.3131,-1.3157,-1.3193,-1.3276,-1.328,-1.3314,-1.3326,-1.3335,-1.3345,-1.3389,-1.3405,-1.324,-1.324,-1.3239,0,0,-1.2934,-1.2947,-1.2974,-1.3019,-1.3035,-1.3078,-1.3026,-1.3074,-1.3106,-1.3068,-1.3131,-1.3139,-1.3163,-1.3237,-1.3271,-1.3247,-1.3391,-1.3344,-1.3352,-1.3356,-1.3398,-1.3414,-1.3427,-1.3244,-1.3243,-1.3243,0,0,-1.3039,-1.3053,-1.3111,-1.3127,-1.315,-1.3149,-1.3163,-1.318,-1.3184,-1.3246,-1.3219,-1.3256,-1.3323,-1.3341,-1.3359,-1.3469,-1.3447,-1.3481,-1.3543,-1.3586,-1.3599,-1.3611,-1.3651,-1.3665,-1.349,-1.349,-1.349,0,-1.3093,-1.3158,-1.3143,-1.3193,-1.3214,-1.3181,-1.3239,-1.3255,-1.329,-1.3305,-1.3278,-1.336,-1.3374,-1.3452,-1.3479,-1.3494,-1.351,-1.348,-1.3598,-1.361,-1.362,-1.3658,-1.3673,-1.3494,-1.3494,-1.3493,-1.3493,0,-1.3223,-1.3268,-1.3311,-1.3345,-1.337,-1.3424,-1.3418,-1.3446,-1.3433,-1.3434,-1.3497,-1.3512,-1.355,-1.3568,-1.3556,-1.3644,-1.3629,-1.36,-1.3553,-1.364,-1.3676,-1.369,-1.35,-1.3499,-1.3497,-1.3496,0,0,-1.3368,-1.3392,-1.3408,-1.3423,-1.3445,-1.348,-1.3532,-1.3568,-1.3593,-1.3617,-1.366,-1.3716,-1.369,-1.371,-1.3699,-1.3737,-1.3824,-1.3704,-1.3704,-1.3727,-1.3923,-1.3946,-1.3963,-1.3809,-1.3811,-1.3813,-1.3921,0,-1.3475,-1.3566,-1.3554,-1.3641,-1.3682,-1.365,-1.3695,-1.3714,-1.3715,-1.3751,-1.3752,-1.3793,-1.3754,-1.3766,-1.3802,-1.3806,-1.3864,-1.3798,-1.385,-1.3852,-1.3847,-1.3981,-1.4005,-1.4106,-1.3935,-1.3937,-1.3939,0,-1.3613,-1.3641,-1.3732,-1.3748,-1.3764,-1.3806,-1.3838,-1.3871,-1.3892,-1.389,-1.3912,-1.3894,-1.3946,-1.3896,-1.3967,-1.3923,-1.3943,-1.3948,-1.3952,-1.3958,-1.3902,-1.3992,-1.4138,-1.4154,-1.396,-1.3959,-1.3957,0,-1.3711,-1.3772,-1.3834,-1.3847,-1.3867,-1.3896,-1.3906,-1.3923,-1.3946,-1.3973,-1.3988,-1.4021,-1.404,-1.4067,-1.4058,-1.4022,-1.4132,-1.4081,-1.4133,-1.4133,-1.4159,-1.4158,-1.4312,-1.417,-1.4169,-1.4169,-1.4169,0,-1.3832,-1.389,-1.3878,-1.3917,-1.398,-1.3965,-1.4027,-1.4033,-1.4048,-1.4087,-1.406,-1.4098,-1.4084,-1.412,-1.4113,-1.4174,-1.4182,-1.4183,-1.4181,-1.4186,-1.4186,-1.4201,-1.4194,-1.4173,-1.4172,-1.4171,-1.4171,0,-1.3954,-1.3949,-1.4014,-1.4027,-1.4031,-1.4077,-1.4088,-1.4124,-1.4122,-1.4172,-1.4183,-1.4181,-1.4222,-1.4216,-1.4262,-1.4257,-1.4333,-1.4321,-1.4326,-1.4324,-1.4377,-1.4373,-1.4547,-1.457,-1.4411,-1.4413,-1.4414,0,-1.4033,-1.4076,-1.4093,-1.4116,-1.4128,-1.4167,-1.4189,-1.4175,-1.42,-1.4225,-1.4259,-1.4297,-1.4327,-1.4394,-1.4397,-1.4432,-1.4422,-1.4481,-1.4427,-1.4431,-1.4424,-1.4422,-1.4427,-1.4492,-1.4494,-1.4495,-1.4496,0,-1.4174,-1.4168,-1.4202,-1.4234,-1.4262,-1.4287,-1.4309,-1.433,-1.4318,-1.4347,-1.4388,-1.4412,-1.4457,-1.4496,-1.4528,-1.4538,-1.4516,-1.4513,-1.4527,-1.4534,-1.4535,-1.4536,-1.4357,-1.4509,-1.4508,-1.4507,-1.4506,-1.4506,-1.4277,-1.4314,-1.4331,-1.4369,-1.4384,-1.4405,-1.4439,-1.4442,-1.4476,-1.4513,-1.4502,-1.4549,-1.4566,-1.4607,-1.462,-1.4656,-1.4635,-1.4655,-1.466,-1.4666,-1.4673,-1.4528,-1.4662,-1.4662,-1.4661,-1.4661,-1.4661,0,-1.4417,-1.4426,-1.4461,-1.4493,-1.4523,-1.4497,-1.452,-1.4547,-1.4589,-1.4607,-1.4637,-1.4684,-1.4721,-1.4726,-1.4761,-1.4789,-1.478,-1.4799,-1.4798,-1.48,-1.469,-1.4675,-1.4806,-1.4806,-1.4806,-1.4806,-1.4806,-1.4806,-1.4494,-1.4555,-1.4552,-1.4619,-1.4628,-1.4673,-1.4689,-1.4708,-1.4722,-1.4776,-1.4807,-1.4809,-1.4822,-1.4858,-1.489,-1.4891,-1.4905,-1.4929,-1.4925,-1.4822,-1.4808,-1.4794,-1.478,-1.4932,-1.4932,-1.5033,-1.5034,-1.5035]},{"header":{"parameterUnit":"m.s-1","parameterCategory":1,"la1":30.2991,"la2":30.254,"lo1":-89.0895,"lo2":-89.0444,"dy":0.0017,"dx":0.0017,"nx":28,"ny":28,"refTime":"2025-09-07T03:00:00:Z","depth":0,"parameterNumber":3,"parameterNumberName":"V-component_of_WINDS"},"data":[0,0,0,0,0,0,0,0,0,0,0,0,0,0,0,0,0,0,0,0,0,0,0,0,0,0,0,0,0,0,0,0,0,0,0,0,0,0,0,0,0,0,0,0,0,0,0,0,0,0,0,0,0,0,0,0,0,0,-6.0056,-6.0057,0,-6.0117,-6.0118,-6.0118,-6.0039,-6.0036,-6.0033,-6.003,-6.0088,-6.0092,-6.0096,0,0,0,0,0,0,0,0,0,0,0,0,0,-5.9865,-5.9869,-6.0056,-6.0057,-6.0057,-6.0117,-6.0118,-6.0118,-6.0039,-6.0036,-6.0032,-6.0029,-6.0086,-6.0091,-6.0096,0,0,0,0,0,0,0,0,0,0,0,0,0,-5.9939,-5.987,-6.0056,-6.0025,-6.0023,-6.0117,-6.0118,-6.0119,-6.004,-6.0036,-6.0031,-6.0027,-6.0085,-6.0091,-6.0097,-6.0222,0,0,-6.0116,-6.0119,0,0,0,0,0,0,0,0,-5.9935,-5.9946,-6.0029,-6.0027,-6.0025,-6.0066,-6.0071,-6.0153,-6.0041,-6.0033,-6.003,-6.0025,-6.0083,-6.009,-6.011,-6.0225,-6.0227,-6.0117,-6.0121,-6.0123,-6.0125,0,0,0,0,0,0,0,-5.993,-5.9943,-6.008,-6.003,-6.0028,-6.0006,-6.0012,-6.0086,-6.0082,-6.0034,-6.0028,-6.0037,-6.0082,-6.0104,-6.0111,-6.0228,-6.0117,-6.0122,-6.0126,-6.0128,-6.0446,-6.0451,0,0,0,0,0,0,-5.9929,-5.9939,-6.0078,-6.0082,-5.9969,-6.0013,-6.002,-6.0057,-6.0081,-6.008,-6.004,-6.0033,-6.0096,-6.0104,-6.0113,-6.026,-6.0123,-6.0129,-6.0133,-6.0441,-6.0447,-6.0452,0,0,0,0,0,0,-5.9925,-5.9942,-6.0075,-6.0009,-6.0024,-6.0021,-6.0064,-6.0061,-6.0083,-6.0086,-6.0084,-6.0065,-6.0093,-6.0104,-6.0195,-6.0261,-6.0132,-6.0138,-6.0436,-6.0443,-6.045,-6.0556,0,0,0,0,0,0,-5.992,-5.9941,-5.999,-6.0011,-6.0028,-6.0159,-6.0068,-6.0065,-6.0095,-6.0086,-6.0108,-6.0108,-6.009,-6.0186,-6.0202,-6.0267,-6.0143,-6.043,-6.0439,-6.0447,-6.0546,-6.0565,-6.0582,0,0,0,0,0,-5.9914,-6.0017,-5.9993,-6.001,-6.009,-6.0163,-6.0173,-6.0152,-6.0101,-6.0149,-6.015,-6.0107,-6.0251,-6.0196,-6.0213,-6.0281,-6.0426,-6.0437,-6.0447,-6.0538,-6.0562,-6.0581,0,0,0,0,0,0,-6.0002,-6.0019,-5.9993,-6.0106,-6.0134,-6.0149,-6.021,-6.0177,-6.0219,-6.0208,-6.0179,-6.0185,-6.0282,-6.0291,-6.0229,-6.0403,-6.033,-6.0344,-6.0394,-6.0416,-6.0433,-6.0429,-6.0148,0,0,0,0,0,-6.0035,-6.0095,-6.0106,-6.0205,-6.022,-6.0213,-6.0244,-6.0226,-6.0252,-6.0263,-6.0271,-6.0298,-6.0348,-6.0383,-6.043,-6.0547,-6.055,-6.0602,-6.062,-6.0634,-6.0647,-6.0708,-6.0731,-6.0487,-6.0486,-6.0486,0,0,-6.0103,-6.012,-6.0159,-6.0223,-6.0242,-6.0303,-6.0223,-6.0291,-6.0336,-6.0273,-6.036,-6.0367,-6.0394,-6.0499,-6.0546,-6.0509,-6.0715,-6.0648,-6.0659,-6.0664,-6.0721,-6.0745,-6.0765,-6.0494,-6.0492,-6.0491,0,0,-6.0259,-6.0278,-6.0362,-6.0384,-6.0415,-6.0409,-6.0429,-6.045,-6.0453,-6.054,-6.0494,-6.0545,-6.0634,-6.0655,-6.0678,-6.0841,-6.0802,-6.0857,-6.0949,-6.101,-6.1029,-6.1046,-6.1103,-6.1124,-6.0869,-6.087,-6.087,0,-6.0339,-6.0431,-6.0409,-6.0481,-6.0509,-6.0457,-6.0541,-6.0562,-6.0606,-6.0626,-6.0585,-6.0695,-6.071,-6.0819,-6.0859,-6.0879,-6.0899,-6.0854,-6.1028,-6.1045,-6.106,-6.1115,-6.1136,-6.0876,-6.0875,-6.0875,-6.0874,0,-6.0528,-6.0592,-6.0656,-6.0702,-6.0738,-6.0815,-6.0803,-6.0841,-6.082,-6.0818,-6.0907,-6.0923,-6.0972,-6.0996,-6.0975,-6.1102,-6.1078,-6.1033,-6.0959,-6.1091,-6.1141,-6.1162,-6.0885,-6.0883,-6.0881,-6.088,0,0,-6.0741,-6.0774,-6.0797,-6.0817,-6.0848,-6.0896,-6.097,-6.102,-6.1053,-6.1085,-6.1145,-6.1222,-6.118,-6.1206,-6.1187,-6.124,-6.1367,-6.1188,-6.1188,-6.122,-6.1506,-6.1539,-6.1563,-6.1342,-6.1346,-6.1349,-6.1503,0,-6.0895,-6.1026,-6.1008,-6.1133,-6.1191,-6.1142,-6.1207,-6.1231,-6.1231,-6.1279,-6.1278,-6.1333,-6.1275,-6.129,-6.134,-6.1341,-6.1424,-6.1329,-6.1396,-6.1398,-6.139,-6.159,-6.1625,-6.177,-6.1523,-6.1526,-6.1528,0,-6.1094,-6.1135,-6.1266,-6.1287,-6.1311,-6.1369,-6.1413,-6.146,-6.1486,-6.1482,-6.1511,-6.1482,-6.1554,-6.148,-6.1578,-6.1514,-6.154,-6.1544,-6.1549,-6.1554,-6.1471,-6.1599,-6.1816,-6.1837,-6.1559,-6.1557,-6.1555,0,-6.1235,-6.1323,-6.1412,-6.1431,-6.1458,-6.15,-6.1512,-6.1534,-6.1565,-6.1603,-6.1622,-6.1667,-6.1691,-6.1726,-6.1709,-6.1657,-6.181,-6.1734,-6.1807,-6.1808,-6.1841,-6.1839,-6.2064,-6.186,-6.1859,-6.1859,-6.1858,0,-6.1409,-6.1491,-6.1476,-6.1531,-6.1621,-6.1598,-6.1687,-6.1693,-6.1714,-6.1767,-6.1727,-6.1778,-6.1753,-6.1802,-6.1789,-6.1872,-6.1883,-6.1881,-6.1876,-6.1884,-6.1884,-6.19,-6.1889,-6.1865,-6.1863,-6.1862,-6.1861,0,-6.1582,-6.1575,-6.167,-6.1688,-6.1694,-6.1759,-6.1773,-6.1824,-6.1821,-6.189,-6.1904,-6.1899,-6.1955,-6.1942,-6.2002,-6.1993,-6.2097,-6.208,-6.2089,-6.2084,-6.2158,-6.2151,-6.24,-6.2431,-6.2207,-6.2209,-6.2211,0,-6.1693,-6.1755,-6.1781,-6.1815,-6.1831,-6.1887,-6.1918,-6.1898,-6.1932,-6.1966,-6.2013,-6.2065,-6.2105,-6.2195,-6.2196,-6.2241,-6.2224,-6.2309,-6.2231,-6.2237,-6.2225,-6.2221,-6.2226,-6.2324,-6.2327,-6.2329,-6.233,0,-6.1892,-6.1885,-6.1934,-6.1981,-6.202,-6.2056,-6.2088,-6.2117,-6.2099,-6.2139,-6.2196,-6.2228,-6.229,-6.2341,-6.2383,-6.2394,-6.2359,-6.2355,-6.2374,-6.2383,-6.2385,-6.2384,-6.213,-6.2349,-6.2347,-6.2346,-6.2345,-6.2344,-6.2036,-6.2089,-6.2115,-6.217,-6.2192,-6.2222,-6.2271,-6.2274,-6.2322,-6.2372,-6.2357,-6.2421,-6.2444,-6.2497,-6.2513,-6.2562,-6.253,-6.2558,-6.2565,-6.2572,-6.2581,-6.2378,-6.2569,-6.2569,-6.2568,-6.2568,-6.2568,0,-6.2232,-6.2246,-6.2297,-6.2343,-6.2386,-6.2352,-6.2384,-6.2422,-6.248,-6.2505,-6.2547,-6.2611,-6.2661,-6.2666,-6.2712,-6.275,-6.2735,-6.2763,-6.276,-6.2762,-6.2607,-6.2586,-6.2774,-6.2774,-6.2774,-6.2774,-6.2774,-6.2774,-6.2338,-6.2426,-6.2423,-6.2519,-6.2532,-6.2597,-6.2619,-6.2646,-6.2666,-6.2741,-6.2783,-6.2786,-6.2803,-6.285,-6.2894,-6.2893,-6.2912,-6.2946,-6.2939,-6.2794,-6.2773,-6.2754,-6.2733,-6.295,-6.295,-6.309,-6.3092,-6.3093]}]]